Weather History for Clermont County, Batavia, OH

Change the Weather History Date:

Monday, April 28, 2014

  Actual Average (KLUK) Record (KLUK)
Temperature  
Mean Temperature 60 °F -  
Max Temperature 69 °F 68 °F 84 °F (1981)
Min Temperature 51 °F 47 °F 31 °F (1976)
Degree Days  
Heating Degree Days 5    
Growing Degree Days 10 (Base 50)    
Moisture  
Dew Point 52 °F    
Average Humidity 73    
Maximum Humidity 100    
Minimum Humidity 37    
Precipitation  
Precipitation 1.04 in - - ()
Sea Level Pressure  
Sea Level Pressure 29.76 in    
Wind  
Wind Speed 5 mph (SE)    
Max Wind Speed 17 mph    
Max Gust Speed 38 mph    
Visibility 9 miles    
Events Rain    
Averages and records for this station are not official NWS values.
T = Trace of Precipitation, MM = Missing Value Source: NWS Daily Summary

Daily Weather History Graph

Daily Weather History Graph

Search for Another Location

Airport:

Trip Planner

Search our weather history database for the weather conditions in past years. The results will help you decide how hot, cold, wet, or windy it might be!

Date:

Astronomy

Apr. 28, 2014 Rise Set
Actual Time 6:42 AM EDT 8:26 PM EDT
Civil Twilight 6:13 AM EDT 8:55 PM EDT
Nautical Twilight 5:39 AM EDT 9:30 PM EDT
Astronomical Twilight 5:02 AM EDT 10:07 PM EDT
Moon 6:19 AM EDT (4/28) 8:04 PM EDT (4/28)
Length of Visible Light 14h 41m
Length of Day
13h 44m
Waning Crescent, 0% of the Moon is Illuminated
Apr 28
Waning Crescent
Apr 29
New
May 6
First Quarter
May 14
Full
May 21
Last Quarter

Hourly Weather History & Observations

Time (EDT) Temp. Dew Point Humidity Pressure Visibility Wind Dir Wind Speed Gust Speed Precip Events Conditions
12:14 AM 62.6 °F 41.0 °F 45% 29.86 in 10.0 mi East 6.9 mph - N/A   Scattered Clouds
12:34 AM 62.6 °F 39.2 °F 42% 29.88 in 10.0 mi Calm Calm - N/A   Mostly Cloudy
12:53 AM 64.4 °F 37.4 °F 37% 29.90 in 10.0 mi Calm Calm - N/A   Mostly Cloudy
1:14 AM 64.4 °F 37.4 °F 37% 29.90 in 10.0 mi Calm Calm - N/A   Scattered Clouds
1:34 AM 62.6 °F 37.4 °F 39% 29.91 in 10.0 mi South 3.5 mph - N/A   Mostly Cloudy
1:53 AM 64.4 °F 37.4 °F 37% 29.90 in 10.0 mi Calm Calm - N/A   Overcast
2:14 AM 60.8 °F 42.8 °F 52% 29.88 in 10.0 mi East 3.5 mph - N/A   Mostly Cloudy
2:34 AM 60.8 °F 42.8 °F 52% 29.87 in 10.0 mi East 4.6 mph - N/A   Mostly Cloudy
2:53 AM 60.8 °F 42.8 °F 52% 29.85 in 10.0 mi East 4.6 mph - N/A   Overcast
3:14 AM 62.6 °F 41.0 °F 45% 29.84 in 10.0 mi East 4.6 mph - N/A   Overcast
3:34 AM 62.6 °F 39.2 °F 42% 29.83 in 10.0 mi East 9.2 mph - N/A   Mostly Cloudy
4:14 AM 60.8 °F 39.2 °F 45% 29.79 in 10.0 mi East 6.9 mph - N/A   Clear
4:34 AM 60.8 °F 37.4 °F 42% 29.82 in 10.0 mi ESE 5.8 mph - N/A   Scattered Clouds
4:53 AM 60.8 °F 37.4 °F 42% 29.81 in 10.0 mi ESE 5.8 mph - N/A   Mostly Cloudy
5:14 AM 60.8 °F 37.4 °F 42% 29.81 in 10.0 mi ESE 4.6 mph - N/A   Overcast
5:34 AM 60.8 °F 37.4 °F 42% 29.79 in 10.0 mi East 6.9 mph - N/A   Overcast
5:53 AM 60.8 °F 37.4 °F 42% 29.78 in 10.0 mi East 8.1 mph - N/A   Overcast
6:14 AM 59.0 °F 37.4 °F 45% 29.77 in 10.0 mi East 9.2 mph - N/A   Overcast
6:34 AM 59.0 °F 41.0 °F 51% 29.77 in 10.0 mi ESE 6.9 mph - N/A Rain Light Rain
6:53 AM 55.4 °F 42.8 °F 63% 29.75 in 10.0 mi East 9.2 mph - N/A Rain Light Rain
7:14 AM 55.4 °F 42.8 °F 63% 29.74 in 10.0 mi ESE 9.2 mph - N/A   Mostly Cloudy
7:34 AM 57.2 °F 41.0 °F 55% 29.77 in 10.0 mi ESE 5.8 mph - N/A Rain Light Rain
7:53 AM 55.4 °F 42.8 °F 63% 29.73 in 10.0 mi East 9.2 mph - 0.01 in Rain Light Rain
8:14 AM 55.4 °F 42.8 °F 63% 29.72 in 10.0 mi East 11.5 mph - N/A Rain Light Rain
8:34 AM 55.4 °F 42.8 °F 63% 29.73 in 10.0 mi NNE 4.6 mph - N/A Rain Light Rain
8:53 AM 53.6 °F 46.4 °F 77% 29.75 in 1.8 mi ENE 4.6 mph 11.5 mph 0.34 in Rain Heavy Rain
9:14 AM 51.8 °F 50.0 °F 94% 29.76 in 5.0 mi East 3.5 mph - 0.08 in Rain Light Rain
9:34 AM 53.6 °F 51.8 °F 94% 29.76 in 7.0 mi ESE 6.9 mph - 0.11 in Rain Rain
9:53 AM 53.6 °F 51.8 °F 94% 29.77 in 7.0 mi ESE 4.6 mph - 0.17 in Rain Rain
10:14 AM 53.6 °F 51.8 °F 94% 29.75 in 10.0 mi SE 6.9 mph - 0.01 in Rain Rain
10:54 AM 53.6 °F 53.6 °F 100% 29.76 in 10.0 mi Calm Calm - 0.03 in Rain Light Rain
11:14 AM 55.4 °F 53.6 °F 94% 29.75 in 10.0 mi Calm Calm - N/A Rain Light Rain
11:34 AM 55.4 °F 55.4 °F 100% 29.75 in 10.0 mi ESE 4.6 mph - N/A   Light Drizzle
11:54 AM 57.2 °F 55.4 °F 94% 29.75 in 10.0 mi ESE 5.8 mph - N/A   Overcast
12:14 PM 59.0 °F 59.0 °F 100% 29.74 in 10.0 mi SSE 3.5 mph - N/A   Overcast
12:34 PM 60.8 °F 60.8 °F 100% 29.74 in 10.0 mi South 8.1 mph - N/A   Overcast
12:54 PM 62.6 °F 60.8 °F 94% 29.75 in 10.0 mi South 5.8 mph - N/A   Overcast
1:14 PM 64.4 °F 62.6 °F 94% 29.77 in 10.0 mi SW 10.4 mph 16.1 mph N/A   Overcast
1:34 PM 66.2 °F 64.4 °F 94% 29.75 in 10.0 mi SW 10.4 mph - N/A   Overcast
1:54 PM 68.0 °F 64.4 °F 88% 29.73 in 10.0 mi South 8.1 mph - N/A   Mostly Cloudy
2:14 PM 68.0 °F 64.4 °F 88% 29.73 in 10.0 mi South 6.9 mph - N/A   Scattered Clouds
2:34 PM 68.0 °F 64.4 °F 88% 29.71 in 10.0 mi South 9.2 mph - N/A   Scattered Clouds
2:54 PM 69.8 °F 64.4 °F 83% 29.73 in 10.0 mi South 5.8 mph - N/A   Scattered Clouds
3:14 PM 69.8 °F 64.4 °F 83% 29.71 in 10.0 mi South 4.6 mph - N/A   Mostly Cloudy
3:54 PM 69.8 °F 60.8 °F 73% 29.75 in 10.0 mi SW 15.0 mph 20.7 mph N/A   Scattered Clouds
4:14 PM 69.8 °F 59.0 °F 68% 29.77 in 10.0 mi WSW 17.3 mph 38.0 mph N/A Rain Light Rain
4:33 PM 69.8 °F 59.0 °F 68% 29.75 in 10.0 mi SW 9.2 mph 18.4 mph N/A Rain Light Rain
5:14 PM 69.8 °F 59.0 °F 68% 29.73 in 10.0 mi SSW 5.8 mph - N/A   Scattered Clouds
5:33 PM 69.8 °F 59.0 °F 68% 29.71 in 10.0 mi Calm Calm - N/A   Scattered Clouds
5:54 PM 69.8 °F 60.8 °F 73% 29.70 in 10.0 mi Calm Calm - N/A   Mostly Cloudy
6:14 PM 69.8 °F 60.8 °F 73% 29.69 in 10.0 mi South 5.8 mph - N/A   Overcast
6:33 PM 69.8 °F 59.0 °F 68% 29.71 in 10.0 mi WSW 6.9 mph - N/A   Overcast
6:54 PM 68.0 °F 60.8 °F 78% 29.73 in 10.0 mi SW 6.9 mph - N/A   Overcast
7:14 PM 68.0 °F 60.8 °F 78% 29.76 in 10.0 mi WSW 10.4 mph - N/A Rain Rain
7:33 PM 64.4 °F 62.6 °F 94% 29.75 in 7.0 mi WSW 5.8 mph - 0.05 in Rain Rain
7:54 PM 64.4 °F 60.8 °F 88% 29.74 in 7.0 mi Calm Calm - 0.08 in Rain Light Rain
8:14 PM 62.6 °F 60.8 °F 94% 29.72 in 10.0 mi SE 3.5 mph - 0.01 in Rain Rain
8:33 PM 62.6 °F 62.6 °F 100% 29.73 in 7.0 mi South 6.9 mph - 0.03 in Rain Rain
8:54 PM 62.6 °F 60.8 °F 94% 29.74 in 7.0 mi SSE 4.6 mph - 0.09 in Rain Rain
9:14 PM 62.6 °F 60.8 °F 94% 29.74 in 7.0 mi South 5.8 mph - 0.07 in Rain Rain
9:34 PM 62.6 °F 60.8 °F 94% 29.73 in 7.0 mi Calm Calm - 0.15 in Rain Rain
9:54 PM 62.6 °F 60.8 °F 94% 29.70 in 10.0 mi SE 6.9 mph - 0.17 in Rain Rain
10:14 PM 62.6 °F 60.8 °F 94% 29.69 in 10.0 mi ESE 4.6 mph - 0.01 in Rain Light Rain
10:34 PM 62.6 °F 60.8 °F 94% 29.71 in 10.0 mi SSE 5.8 mph - 0.02 in Rain Light Rain
10:54 PM 62.6 °F 60.8 °F 94% 29.73 in 7.0 mi SSE 8.1 mph - 0.06 in Rain Heavy Rain
11:14 PM 62.6 °F 60.8 °F 94% 29.71 in 5.0 mi SE 9.2 mph - 0.06 in Rain Rain
11:34 PM 62.6 °F 60.8 °F 94% 29.68 in 10.0 mi ESE 12.7 mph - 0.08 in Rain Rain
11:54 PM 62.6 °F 60.8 °F 94% 29.68 in 10.0 mi SE 8.1 mph - 0.09 in Rain Rain